Total_Precipitation_Accumulation
0.23 0.28 0.33 0.42 0.36 0.24 0.11 0.03 0.01 0.01 0.01 0.02 0.02 0.03 0.02 0.03 0.04 0.07 0.05 0.04 0.05 0.07 0.11 0.21 0.32 0.33 0.28 0.24 0.20 0.17 0.17 0.18 0.19 0.20 0.20 0.19 0.18 0.19 0.25 0.28 0.29 0.30 0.31 0.37 0.43 0.42 0.37 0.35 0.24
0.27 0.39 0.55 0.61 0.41 0.24 0.11 0.03 0.01 0.01 0.01 0.01 0.02 0.02 0.02 0.02 0.04 0.05 0.05 0.06 0.09 0.10 0.12 0.20 0.31 0.35 0.31 0.26 0.20 0.19 0.21 0.22 0.24 0.25 0.26 0.28 0.26 0.26 0.28 0.31 0.30 0.28 0.29 0.32 0.30 0.24 0.20 0.18 0.14
0.44 0.60 0.76 0.68 0.48 0.26 0.12 0.03 0.02 0.02 0.02 0.02 0.03 0.03 0.04 0.05 0.04 0.07 0.07 0.06 0.11 0.15 0.16 0.22 0.31 0.38 0.37 0.31 0.25 0.22 0.24 0.26 0.28 0.30 0.34 0.36 0.36 0.35 0.32 0.32 0.28 0.25 0.23 0.20 0.15 0.12 0.12 0.11 0.09
0.68 0.90 0.94 0.74 0.45 0.20 0.09 0.04 0.03 0.04 0.03 0.03 0.04 0.06 0.08 0.06 0.07 0.08 0.12 0.11 0.11 0.18 0.23 0.31 0.38 0.42 0.43 0.38 0.31 0.29 0.30 0.30 0.32 0.32 0.36 0.40 0.44 0.44 0.40 0.33 0.23 0.18 0.15 0.13 0.11 0.09 0.09 0.07 0.06
0.92 1.05 0.98 0.71 0.34 0.15 0.07 0.06 0.05 0.05 0.05 0.05 0.07 0.08 0.13 0.11 0.12 0.15 0.17 0.16 0.15 0.20 0.28 0.38 0.46 0.48 0.47 0.45 0.41 0.39 0.38 0.36 0.35 0.34 0.38 0.42 0.44 0.42 0.38 0.28 0.20 0.15 0.14 0.13 0.10 0.09 0.08 0.07 0.05
1.07 1.15 0.95 0.59 0.25 0.10 0.06 0.07 0.08 0.08 0.07 0.10 0.13 0.17 0.21 0.21 0.22 0.25 0.27 0.23 0.18 0.21 0.33 0.45 0.55 0.55 0.51 0.48 0.47 0.46 0.44 0.44 0.42 0.40 0.41 0.43 0.44 0.41 0.35 0.27 0.20 0.16 0.15 0.15 0.13 0.10 0.08 0.08 0.07
0.99 1.01 0.76 0.43 0.20 0.11 0.07 0.09 0.11 0.12 0.11 0.13 0.16 0.23 0.33 0.37 0.37 0.36 0.39 0.38 0.31 0.30 0.42 0.53 0.64 0.65 0.62 0.57 0.53 0.49 0.48 0.49 0.50 0.50 0.50 0.44 0.39 0.37 0.34 0.29 0.23 0.18 0.16 0.16 0.14 0.12 0.10 0.10 0.08
0.95 1.09 0.65 0.39 0.22 0.15 0.10 0.10 0.12 0.16 0.17 0.15 0.21 0.29 0.37 0.46 0.53 0.55 0.59 0.63 0.57 0.51 0.56 0.63 0.73 0.72 0.65 0.61 0.58 0.55 0.50 0.49 0.52 0.55 0.51 0.46 0.40 0.37 0.34 0.27 0.23 0.19 0.16 0.15 0.13 0.13 0.12 0.11 0.09
0.93 1.16 0.69 0.34 0.26 0.19 0.15 0.14 0.14 0.19 0.25 0.22 0.24 0.30 0.42 0.57 0.73 0.78 0.86 0.88 0.87 0.80 0.75 0.76 0.81 0.82 0.74 0.67 0.63 0.62 0.57 0.52 0.52 0.51 0.46 0.45 0.45 0.40 0.32 0.22 0.18 0.17 0.16 0.15 0.15 0.14 0.12 0.09 0.08
0.91 0.90 0.61 0.36 0.30 0.26 0.23 0.23 0.24 0.31 0.37 0.34 0.32 0.42 0.59 0.85 1.04 1.00 0.87 0.91 0.90 0.94 0.91 0.86 0.84 0.83 0.83 0.78 0.71 0.70 0.63 0.56 0.53 0.46 0.45 0.45 0.44 0.40 0.30 0.24 0.20 0.18 0.16 0.16 0.18 0.18 0.15 0.10 0.07
0.62 0.53 0.44 0.43 0.38 0.34 0.33 0.31 0.29 0.37 0.38 0.39 0.32 0.43 0.65 1.02 1.27 1.28 1.17 1.01 0.98 1.00 1.06 1.03 0.97 0.88 0.83 0.85 0.77 0.72 0.67 0.60 0.54 0.47 0.47 0.49 0.53 0.50 0.44 0.34 0.30 0.28 0.21 0.20 0.19 0.20 0.14 0.09 0.07
0.43 0.36 0.41 0.49 0.45 0.40 0.39 0.36 0.34 0.38 0.36 0.36 0.37 0.43 0.62 0.94 1.25 1.32 1.42 1.31 1.24 1.19 1.13 1.15 1.11 1.02 0.88 0.85 0.81 0.76 0.71 0.66 0.57 0.48 0.46 0.46 0.46 0.45 0.41 0.33 0.29 0.27 0.21 0.20 0.18 0.16 0.12 0.10 0.08
0.36 0.37 0.40 0.47 0.47 0.41 0.42 0.43 0.42 0.38 0.40 0.45 0.50 0.61 0.70 0.96 1.32 1.49 1.62 1.70 1.57 1.36 1.27 1.29 1.21 1.08 0.98 0.91 0.83 0.78 0.77 0.72 0.62 0.58 0.54 0.45 0.37 0.33 0.34 0.31 0.30 0.27 0.22 0.19 0.18 0.15 0.13 0.12 0.10
0.32 0.38 0.44 0.48 0.50 0.43 0.47 0.44 0.42 0.40 0.46 0.58 0.60 0.66 0.77 1.04 1.33 1.57 1.73 1.81 1.67 1.58 1.53 1.53 1.43 1.26 1.09 0.98 0.87 0.78 0.78 0.78 0.78 0.66 0.57 0.56 0.46 0.36 0.34 0.33 0.30 0.28 0.24 0.21 0.19 0.16 0.16 0.15 0.13
0.40 0.49 0.53 0.54 0.53 0.49 0.50 0.53 0.40 0.38 0.51 0.63 0.61 0.65 0.73 0.95 1.27 1.47 1.57 1.65 1.71 1.62 1.69 1.72 1.67 1.55 1.31 1.13 1.04 0.89 0.84 0.83 0.83 0.74 0.64 0.61 0.56 0.47 0.42 0.39 0.33 0.29 0.28 0.28 0.28 0.26 0.21 0.18 0.14
0.67 0.71 0.65 0.50 0.52 0.50 0.59 0.56 0.36 0.38 0.49 0.61 0.63 0.64 0.70 0.82 1.13 1.39 1.51 1.62 1.80 1.75 1.72 1.86 1.89 1.79 1.61 1.39 1.26 1.10 0.97 0.90 0.83 0.78 0.72 0.65 0.61 0.54 0.51 0.45 0.39 0.36 0.35 0.32 0.32 0.32 0.29 0.23 0.19
0.96 0.75 0.48 0.42 0.46 0.49 0.53 0.53 0.40 0.36 0.45 0.54 0.61 0.62 0.67 0.74 0.95 1.27 1.45 1.53 1.75 1.83 1.86 1.92 2.05 2.04 1.99 1.87 1.72 1.50 1.27 1.13 1.04 0.93 0.83 0.75 0.68 0.60 0.56 0.49 0.45 0.46 0.44 0.36 0.30 0.30 0.28 0.25 0.21
0.63 0.44 0.34 0.39 0.41 0.40 0.41 0.46 0.43 0.37 0.42 0.48 0.58 0.65 0.70 0.72 0.79 1.03 1.32 1.48 1.79 2.05 2.12 2.05 2.17 2.30 2.36 2.38 2.23 2.05 1.72 1.43 1.24 1.08 0.99 0.91 0.83 0.73 0.64 0.58 0.52 0.52 0.55 0.50 0.42 0.35 0.32 0.29 0.25
0.47 0.38 0.34 0.35 0.35 0.39 0.38 0.42 0.45 0.42 0.43 0.50 0.60 0.66 0.71 0.70 0.75 0.98 1.21 1.47 1.76 2.13 2.29 2.26 2.22 2.38 2.59 2.43 2.21 2.01 1.80 1.63 1.45 1.29 1.17 1.09 0.99 0.90 0.79 0.69 0.66 0.61 0.58 0.57 0.56 0.53 0.49 0.45 0.43
0.60 0.53 0.43 0.42 0.38 0.43 0.41 0.44 0.43 0.43 0.42 0.48 0.57 0.63 0.64 0.59 0.67 0.90 1.11 1.34 1.52 1.96 2.22 2.24 2.30 2.43 2.59 2.47 2.33 2.29 2.22 2.01 1.82 1.68 1.41 1.22 1.11 1.01 0.95 0.85 0.76 0.73 0.70 0.67 0.65 0.65 0.62 0.58 0.61
0.69 0.59 0.48 0.47 0.50 0.47 0.44 0.48 0.39 0.38 0.37 0.41 0.54 0.60 0.57 0.54 0.63 0.78 0.96 1.16 1.26 1.53 1.91 2.07 2.14 2.29 2.41 2.55 2.80 2.80 2.70 2.36 1.92 1.63 1.52 1.42 1.39 1.29 1.15 1.12 1.04 0.89 0.82 0.76 0.72 0.70 0.69 0.67 0.64
0.70 0.48 0.48 0.49 0.62 0.63 0.48 0.61 0.42 0.37 0.39 0.41 0.53 0.58 0.57 0.56 0.60 0.72 0.84 0.95 1.07 1.21 1.55 1.89 2.09 2.23 2.25 2.32 2.55 2.65 2.52 2.17 1.83 1.62 1.62 1.67 1.62 1.58 1.52 1.39 1.33 1.20 1.05 0.92 0.88 0.85 0.84 0.86 0.82
0.64 0.45 0.54 0.61 0.68 0.68 0.47 0.55 0.46 0.39 0.45 0.47 0.53 0.59 0.59 0.60 0.64 0.70 0.75 0.79 0.87 1.02 1.35 1.66 1.90 2.12 2.16 2.09 2.19 2.40 2.47 2.35 2.18 2.00 1.86 1.79 1.73 1.63 1.61 1.57 1.50 1.40 1.29 1.19 1.14 1.07 1.04 1.03 0.99
0.71 0.73 0.84 0.91 1.10 1.06 0.47 0.46 0.42 0.43 0.53 0.53 0.51 0.60 0.65 0.70 0.72 0.72 0.73 0.73 0.79 0.86 1.02 1.32 1.61 1.92 2.10 2.06 2.09 2.17 2.22 2.28 2.20 2.05 2.01 1.90 1.86 1.74 1.59 1.57 1.56 1.50 1.47 1.41 1.38 1.35 1.25 1.18 1.13
1.12 1.48 1.82 1.76 1.55 0.90 0.28 0.31 0.43 0.41 0.47 0.50 0.53 0.61 0.65 0.66 0.66 0.64 0.62 0.63 0.73 0.81 0.87 1.07 1.24 1.49 1.78 1.91 1.94 1.97 2.05 2.10 2.12 2.10 2.07 2.03 1.88 1.74 1.65 1.59 1.59 1.59 1.52 1.51 1.52 1.47 1.37 1.29 1.23
1.13 1.32 1.39 1.19 0.78 0.40 0.22 0.34 0.43 0.37 0.40 0.44 0.49 0.56 0.65 0.69 0.69 0.66 0.62 0.65 0.76 0.79 0.85 0.96 1.06 1.18 1.41 1.61 1.69 1.72 1.84 1.92 1.89 1.95 1.92 1.86 1.78 1.69 1.69 1.69 1.61 1.61 1.60 1.55 1.53 1.48 1.38 1.33 1.28
1.07 0.97 0.76 0.92 0.67 0.45 0.32 0.28 0.32 0.32 0.36 0.40 0.42 0.47 0.58 0.62 0.62 0.64 0.65 0.69 0.74 0.77 0.82 0.90 0.97 1.00 1.11 1.30 1.43 1.54 1.58 1.59 1.55 1.56 1.57 1.60 1.62 1.59 1.54 1.56 1.52 1.48 1.48 1.47 1.49 1.45 1.35 1.31 1.26
0.94 0.79 0.86 1.12 0.92 0.62 0.32 0.25 0.38 0.38 0.39 0.40 0.41 0.43 0.52 0.58 0.61 0.64 0.67 0.66 0.66 0.70 0.74 0.82 0.84 0.83 0.90 1.00 1.07 1.23 1.33 1.34 1.36 1.37 1.34 1.32 1.31 1.33 1.33 1.33 1.34 1.31 1.32 1.33 1.33 1.31 1.30 1.28 1.19
0.73 0.83 0.90 0.90 0.71 0.72 0.48 0.36 0.37 0.39 0.41 0.43 0.46 0.47 0.52 0.56 0.63 0.69 0.72 0.69 0.67 0.71 0.73 0.75 0.70 0.72 0.75 0.82 0.87 0.93 1.05 1.12 1.18 1.19 1.11 1.12 1.09 1.05 1.06 1.04 1.06 1.10 1.12 1.15 1.15 1.15 1.17 1.19 1.16
0.56 0.56 0.69 0.93 0.71 0.58 0.54 0.37 0.27 0.31 0.36 0.41 0.48 0.47 0.48 0.52 0.57 0.62 0.69 0.68 0.67 0.70 0.73 0.75 0.68 0.66 0.68 0.73 0.74 0.77 0.85 0.97 1.01 1.06 1.01 0.95 0.97 0.91 0.89 0.87 0.85 0.84 0.87 0.91 0.93 0.94 0.98 1.02 1.03